weather.gov     
National Weather Service

Regional Weather Roundup
NWS Homepage
This page is being discontinued on March 12, 2014.
The same data is available at this site. Please update your bookmarks.
Thank you, and we apologize for the inconvenience.
Please send an email to SR-SRH.Webmaster@noaa.gov with any concerns.


Current Version
Previous Version:    01  02  03  04  05  06  07  08  09  10  11  12  13  14  15  16  17  18  19  20  21  22  23  24  25  26  27  28  29  30  
   31  32  33  34  35  36  37  38  39  40  41  42  43  44  45  46  47  48  49  50  51  52  53  54  55  56  57  58  59  60  
[Printable]
659
ASUS44 KSJT 180310
RWRSJT
WEST CENTRAL TEXAS REGIONAL WEATHER ROUNDUP
NATIONAL WEATHER SERVICE SAN ANGELO TX
1000 PM CDT THU APR 17 2014

NOTE: "FAIR" INDICATES FEW OR NO CLOUDS BELOW 12,000 FEET WITH NO
SIGNIFICANT WEATHER AND/OR OBSTRUCTIONS TO VISIBILITY.

TXZ049-054-064>066-071>073-076>078-098-099-113-114-127-128-139-140-
154-155-168>170-180400
...LOCATIONS ACROSS WEST CENTRAL TEXAS...

CITY           SKY/WX    TMP DP  RH WIND       PRES   REMARKS
SAN ANGELO     CLEAR     58  53  84 NE8       30.15R
ABILENE        CLOUDY    56  52  86 N9        30.18R
DYESS AFB      CLOUDY    55  52  88 N8        30.19R
JUNCTION       CLOUDY    61  56  83 E8        30.15R
SWEETWATER     CLOUDY    54  50  86 NE10      30.23R
BROWNWOOD      CLOUDY    59  57  94 NE3       30.18R
COLEMAN        CLOUDY    59  55  85 CALM      30.17R
SONORA         CLEAR     63  55  77 NE8       30.14R
OZONA          FAIR      63  50  63 E13       30.15R
BRADY          NOT AVBL
$$

TEXAS PANHANDLE/OKLAHOMA PANHANDLE

CITY           SKY/WX    TMP DP  RH WIND       PRES   REMARKS
AMARILLO       CLEAR     42  35  76 E8        30.24R WCI  37
BORGER         PTCLDY    46  35  65 E3        30.25R
CANADIAN       CLOUDY    52  37  55 SE6       30.24R
DALHART        CLEAR     44  33  65 SE12      30.21S WCI  38
DUMAS          CLEAR     41  33  73 SE9       30.22S WCI  35
GUYMON         NOT AVBL
HEREFORD       FAIR      40  32  73 E6        30.24R WCI  36
PAMPA          CLOUDY    44  34  68 CALM      30.25R
PERRYTON       CLOUDY    46  36  66 CALM      30.24R
$$

SOUTHERN PANHANDLE/SOUTH PLAINS/ROLLING PLAINS

CITY           SKY/WX    TMP DP  RH WIND       PRES   REMARKS
LUBBOCK        PTCLDY    47  39  74 NE12      30.22R
SNYDER         CLOUDY    55  50  83 N15       30.21R
CHILDRESS      CLOUDY    48  43  82 N9        30.25R
SEMINOLE       CLEAR     55  42  61 E12G17    30.20R
$$

PERMIAN BASIN

CITY           SKY/WX    TMP DP  RH WIND       PRES   REMARKS
MIDLAND        CLEAR     59  46  62 E17       30.16R
ODESSA         CLEAR     60  46  59 NE16      30.16R
WINK           CLEAR     65  45  48 E17G25    30.10R
$$

FAR WEST/SOUTHWEST MOUNTAINS/TRANS PECOS

CITY           SKY/WX    TMP DP  RH WIND       PRES   REMARKS
ALPINE         CLEAR     59  25  26 CALM      30.21R
DRYDEN           N/A     70  47  43 E8        30.07R
EL PASO        PTCLDY    72  22  15 E14       30.05R
FORT STOCKTON  CLEAR     66  39  37 E8        30.10R
GUADALUPE PASS CLEAR     57  28  33 NE25      30.19R
MARFA          CLEAR     57  25  28 NE8       30.18R
PECOS          CLEAR     66  34  29 NE7       30.09R
$$

DALLAS/FORT WORTH METROPLEX

CITY           SKY/WX    TMP DP  RH WIND       PRES   REMARKS
DFW AIRPORT    CLOUDY    60  53  77 N7        30.19R
FTW MEACHAM    RAIN      57  55  93 NE8       30.19R FOG
DAL-EXECUTIVE  CLOUDY    62  51  67 NE9       30.18R
GRAND PRAIRIE  CLOUDY    59  52  77 N7        30.21R
ADDISON        LGT RAIN  61  50  67 NE8       30.19R
MESQUITE       CLOUDY    61  50  68 N3        30.19
LANCASTER      CLOUDY    61  49  66 N5        30.19R
$$

NORTH CENTRAL TEXAS

CITY           SKY/WX    TMP DP  RH WIND       PRES   REMARKS
SHRMAN/DENISON CLOUDY    59  49  69 CALM      30.21R
GAINESVILLE    MOCLDY    55  53  91 CALM      30.22S
BRIDGEPORT     CLOUDY    55  55  99 E5        30.22R FOG
DENTON         LGT RAIN  57  55  93 NE3       30.20R
WAXAHACHIE     CLOUDY    60  50  69 N5        30.19R
GRANBURY       CLOUDY    59  57  91 NE5       30.20R FOG
$$

WESTERN NORTH TEXAS

CITY           SKY/WX    TMP DP  RH WIND       PRES   REMARKS
WICHITA FALLS  CLOUDY    55  53  93 E6        30.21R
VERNON         CLOUDY    51  49  92 N7        30.23R
BRECKENRIDGE   CLOUDY    61  56  83 E8        30.17R
COMANCHE       CLOUDY    58  58  99 CALM      30.17R
$$

CENTRAL AND SOUTH CENTRAL TEXAS

CITY           SKY/WX    TMP DP  RH WIND       PRES   REMARKS
AUSTIN/BERGSTM LGT RAIN  61  60  97 NE7       30.15R FOG
WACO           CLOUDY    61  59  93 CALM      30.17R FOG
HILLSBORO      RAIN      61  52  73 N7        30.18R
TEMPLE         MOCLDY    61  55  82 E5        30.18R
KILLEEN-GRAY   CLOUDY    63  57  82 E3        30.15R
FORT HOOD      NOT AVBL
GEORGETOWN     CLOUDY    61  57  88 CALM      30.17R
LAGO VISTA     LGT RAIN  61  59  94 CALM      30.17R
SAN MARCOS     CLOUDY    61  57  88 NE10      30.17R
NEW BRAUNFELS  LGT RAIN  62  62 100 NE8       30.14R FOG
RANDOLPH AFB   DRIZZLE   62  60  95 E8        30.14R FOG
SAN ANTONIO    LGT RAIN  63  62  97 E7        30.14R FOG
STINSON        CLOUDY    64  62  93 E8        30.12R FOG
PLEASANTON     NOT AVBL
LA GRANGE      DRIZZLE   63  61  94 CALM      30.15R
GIDDINGS       HVY RAIN  63  60  89 E3        30.19R
$$

EAST TEXAS

CITY           SKY/WX    TMP DP  RH WIND       PRES   REMARKS
PARIS          CLOUDY    59  46  63 SE8       30.20S
CLARKSVILLE    CLOUDY    59  46  61 CALM      30.21R
TYLER          CLOUDY    64  47  53 NE6       30.17R
LONGVIEW       MOCLDY    59  47  64 E6        30.17S
PALESTINE      CLOUDY    66  49  54 E7        30.18R
NACOGDOCHES    MOCLDY    55  46  71 E6        30.19R
$$

TEXAS HILL COUNTRY AND EDWARDS PLATEAU

CITY           SKY/WX    TMP DP  RH WIND       PRES   REMARKS
LLANO          CLOUDY    63  59  88 CALM      30.18R
HORSESHOE BAY  CLOUDY    61  61 100 SE5       30.15R
KERRVILLE      CLOUDY    61  58  90 E5        30.15R
FREDERICKSBRG  CLOUDY    59  57  92 E3        30.16R
ROCKSPRINGS    CLOUDY    64  55  72 E10G16    30.15R
HONDO          CLOUDY    67  60  78 E13       30.14R
UVALDE         MOCLDY    65  60  84 E12       30.11R
DEL RIO        CLEAR     73  56  54 E15G23    30.06R
$$

SOUTHEAST TEXAS

CITY           SKY/WX    TMP DP  RH WIND       PRES   REMARKS
COLLEGE STN    LGT RAIN  63  59  87 NE5       30.16R
CALDWELL       DRIZZLE   61  61 100 E5        30.20R
CROCKETT       CLOUDY    66  54  63 E6        30.19R
BRENHAM        DRIZZLE   61  59  94 CALM      30.17R
HUNTSVILLE     CLOUDY    65  52  62 CALM      30.15R
CONROE         CLOUDY    64  56  75 SE6       30.16R
HOUSTON BUSH   CLOUDY    64  56  75 E10       30.15R
HOUSTON HOBBY  MOCLDY    64  53  67 E7        30.14R
PERLAND        CLOUDY    64  54  69 E6        30.15R
WHARTON        CLOUDY    63  58  83 E7        30.14S
$$

THE UPPER TEXAS COAST

CITY           SKY/WX    TMP DP  RH WIND       PRES   REMARKS
ORANGE         MOCLDY    59  55  85 N3        30.16S
PORT ARTHUR    CLOUDY    62  54  74 N7        30.14R
GALVESTON      CLOUDY    64  59  83 NE10      30.14R
ANGLETON       CLOUDY    63  58  83 NE6       30.13R
BAY CITY       CLOUDY    64  61  89 E8        30.12S
$$

TEXAS COASTAL BEND, RIO GRANDE PLAINS DEEP SOUTH TEXAS

CITY           SKY/WX    TMP DP  RH WIND       PRES   REMARKS
VICTORIA       CLOUDY    64  59  83 E9        30.12S
BEEVILLE       CLOUDY    64  64 100 E8        30.11R
ROCKPORT       CLOUDY    66  63  90 E14       30.10R
PORT ARANSAS   CLOUDY    65  63  92 E15G21    30.09R
PORT LAVACA    CLOUDY    62  59  90 E13       30.11S
CORPUS CHRISTI DRIZZLE   66  62  87 E13       30.09R
KINGSVILLE NAS LGT RAIN  68  64  87 E16       30.08R
COTULLA        CLOUDY    69  61  75 E15G22    30.09R
LAREDO         CLOUDY    72  63  73 E14       30.08R
BROWNSVILLE    CLOUDY    70  67  90 E8        30.03R
PORT ISABEL    CLOUDY    70  66  87 E9        30.04R
HEBBRONVILLE   CLOUDY    68  62  80 E12       30.09R
MCALLEN        LGT RAIN  69  67  93 E9        30.05R
WESLACO        CLOUDY    68  66  91 E7        30.04R
FALFURRIAS     CLOUDY    70  65  85 E13       30.07R
EDINBURG       CLOUDY    71  66  84 E9        30.05R
$$




U.S. Dept. of Commerce
NOAA National Weather Service
1325 East West Highway
Silver Spring, MD 20910
E-mail: w-nws.webmaster@noaa.gov
Page last modified: May 16, 2007
NATIONAL WEATHER SERVICE: for Safety, for Work, for Fun - FOR LIFE